Regional Weather Roundup
Issued by NWS Boston, MA

Current Version | Previous Version | Text Only | Print | Product List | Glossary Off
Versions: 1 2 3 4 5 6 7 8 9 10 11 12 13 14 15 16 17 18 19 20 21 22 23 24 25 26 27 28 29
000 ASUS41 KBOX 171610 RWRBOX REGIONAL WEATHER ROUNDUP NATIONAL WEATHER SERVICE TAUNTON MA 1100 AM EST FRI NOV 17 2017 NOTE: "FAIR" INDICATES FEW OR NO CLOUDS BELOW 12,000 FEET WITH NO SIGNIFICANT WEATHER AND/OR OBSTRUCTIONS TO VISIBILITY. MAZALL-171700- EASTERN MASSACHUSETTS CITY SKY/WX TMP DP RH WIND PRES REMARKS BOSTON MOSUNNY 41 25 53 NW20G36 29.88S WCI 32 BEVERLY SUNNY 41 25 53 NW17G37 29.86F LAWRENCE MOSUNNY 41 24 51 W21G32 29.90S WCI 32 BEDFORD MOSUNNY 40 23 50 NW24G33 29.89S WCI 29 BLUE HILL NOT AVBL NORWOOD MOSUNNY 43 25 49 NW21G35 29.90S MARSHFIELD SUNNY 43 27 52 NW15G26 29.86S PLYMOUTH SUNNY 44 27 51 W18G28 29.87S TAUNTON SUNNY 42 25 50 NW16G30 29.89F NEW BEDFORD MOSUNNY 43 25 49 W21G32 29.88F $$ MAZALL-171700- CAPE COD AND THE ISLANDS CITY SKY/WX TMP DP RH WIND PRES REMARKS FALMOUTH MOSUNNY 41 25 52 NW20G32 29.87S WCI 32 HYANNIS MOSUNNY 44 28 53 N14G26 29.83S CHATHAM PTSUNNY 43 30 60 NW16G30 29.84F PROVINCETOWN MOSUNNY 42 30 62 NW26G37 29.85S WCI 32 NANTUCKET PTSUNNY 43 30 60 NW24G31 29.86S MARTHAS VNYRD SUNNY 44 26 49 NW26G36 29.87F $$ MAZALL-171700- CENTRAL AND WESTERN MASSACHUSETTS CITY SKY/WX TMP DP RH WIND PRES REMARKS WORCESTER SUNNY 36 20 52 NW28G38 29.89R WCI 23 FITCHBURG CLOUDY 41 25 53 NW20G32 29.93S WCI 32 ORANGE SUNNY 37 23 56 NW24G30 29.94F WCI 26 SPRINGFIELD MOSUNNY 42 23 46 NW9G17 29.96S WESTFIELD SUNNY 41 23 48 NW21G28 29.97F WCI 32 NORTH ADAMS CLOUDY 35 22 58 W12G20 30.01F WCI 27 PITTSFIELD CLOUDY 32 21 64 NW16G24 29.98F WCI 21 $$ RIZALL-171700- RHODE ISLAND CITY SKY/WX TMP DP RH WIND PRES REMARKS PROVIDENCE MOSUNNY 44 25 47 NW16G26 29.92S NEWPORT MOSUNNY 43 27 53 NW22G29 29.90F BLOCK ISLAND SUNNY 43 26 51 NW16G26 29.94F SMITHFIELD SUNNY 42 26 53 NW15G26 29.91R WESTERLY SUNNY 43 26 51 NW14G28 29.94F $$ CTZALL-171700- CONNECTICUT CITY SKY/WX TMP DP RH WIND PRES REMARKS BRADLEY INTL MOSUNNY 41 23 48 NW20G25 29.99F WCI 32 HARTFORD MOSUNNY 42 24 49 NW12G21 30.00F BRIDGEPORT SUNNY 46 25 43 NW15G23 30.01S DANBURY MOSUNNY 44 23 43 NW14G24 30.03F GROTON SUNNY 43 25 49 NW26G32 29.96S NEW HAVEN MOSUNNY 44 26 49 NW13G22 30.01S CHESTER FAIR 41 23 48 NW20G30 29.97S WCI 32 MERIDEN SUNNY 42 24 49 NW18G24 30.00F WILLIMANTIC MOSUNNY 42 25 50 NW8G23 29.97S OXFORD MOSUNNY 39 25 57 NW15G25 29.99S WCI 31 $$ MEZ002-015-021-024-NHZ003-005-008-011-012-014-VTZ005-008-171700- NORTHERN NEW ENGLAND CITY SKY/WX TMP DP RH WIND PRES REMARKS PORTLAND ME MOSUNNY 41 26 55 W18G30 29.80R BANGOR ME CLOUDY 39 30 70 W14G24 29.66R WCI 31 CONCORD NH CLOUDY 34 23 64 NW23G36 29.91S WCI 22 MANCHESTER NH PTSUNNY 37 22 54 NW17G36 29.89F WCI 27 NASHUA NH PTSUNNY 38 23 55 NW22G32 29.91F WCI 27 PORTSMOUTH NH MOSUNNY 38 24 55 NW26G32 29.83S WCI 27 JAFFREY NH CLOUDY 34 24 67 NW12G23 29.91F WCI 25 KEENE NH CLOUDY 35 22 58 NW14G28 29.95F WCI 26 BURLINGTON VT PTSUNNY 31 19 61 NW14G25 30.06F WCI 21 MT. WASHINGTON BLWGSNOW 7 7 100 NW77G85 N/A VSB 0 WCI -26 $$ NYZ052-076-171700- EASTERN NEW YORK CITY SKY/WX TMP DP RH WIND PRES REMARKS ALBANY MOSUNNY 37 21 52 NW20G28 30.08F WCI 27 NEW YORK CITY MOSUNNY 44 27 51 NW20G25 30.06F $$ ANZALL-171700- MARINE OBSERVATIONS STATION/POSITION TIME TEMP WIND PRES VSBY WAVE AIR SEA DIR/SP/G HT/PER (UTC) (F) (DEG/KT/KT) (MB) (MI) (FT/S) BOSTON BUOY 1550 41 51 310/ 25/ 31 1009.3F 5/ 5 BUZZARDS BAY 1500 42 320/ 28/ 34 1012.7R NANTUCKET SOUND 1550 42 51 320/ 23/ 27 1010.5R 4/ 5 MASS BAY-STELLWA 1504 40 50 320/ 21/ 25 1009.9R 4/ 4 ISLE OF SHOALS 1500 37 290/ 30/ 38 1009.2R S OF BLOCK IS NOT AVBL $$ ......................KEY......................... SKY/WX - SKY CONDITION/PRESENT WEATHER TMP - TEMPERATURE IN FAHRENHEIT DWPT - DEWPOINT IN FAHRENHEIT RH - RELATIVE HUMIDITY IN PERCENT WIND - DIRECTION AND SPEED IN MPH PRES - MEAN SEA LEVEL PRESSURE IN INCHES OF HG WCI - WIND CHILL INDEX VSB - VISIBILITY IN MILES HX - HEAT INDEX TC - TEMPERATURE IN CELSIUS VRB - VARIABLE WIND DIRECTION N/A - NOT AVAILABLE

USA.gov is the U.S. government's official web portal to all federal, state and local government web resources and services.